Regional Weather Roundup
Issued by NWS

Home | Current Version | Previous Version | Graphics & Text | Print | Product List | Glossary On
Versions: 1 2 3 4 5 6 7 8 9 10 11 12 13 14 15 16 17 18 19 20 21 22 23 24 25 26 27 28 29 30 31 32 33 34 35 36 37 38 39 40 41 42 43 44 45 46 47 48 49 50
000
ASUS45 KTFX 301010
RWRMT
MONTANA REGIONAL WEATHER ROUNDUP
NATIONAL WEATHER SERVICE GREAT FALLS MT
400 AM MDT THU MAR 30 2017

NOTE: "FAIR" INDICATES FEW OR NO CLOUDS BELOW 12000 FEET WITH NO
SIGNIFICANT WEATHER AND/OR OBSTRUCTIONS TO VISIBILITY.

MTZ001>007-043-301100-
WEST OF THE DIVIDE

CITY           SKY/WX    TMP DP  RH WIND       PRES   REMARKS
KALISPELL      MOCLDY    41  40  96 S8        29.77F
MISSOULA       LGT RAIN  43  40  89 N5        29.82F
BUTTE          LGT RAIN  39  33  79 NW6       29.79F
MULLAN PASS    SNOW      31  31 100 W8        29.78F VSB 1/2 WCI  23
ANACONDA         N/A     41  34  75 S3        29.79F
DEER LODGE       N/A     39  36  87 CALM      29.81F
EUREKA           N/A     43  39  87 SE3       29.76F
HAMILTON         N/A     45  37  76 S9        29.80F
PLAINS           N/A     40  34  79 CALM      29.82
RONAN            N/A     44  38  79 CALM      29.87S
$$

MTZ008-052>055-301100-
SOUTHWEST MONTANA

CITY           SKY/WX    TMP DP  RH WIND       PRES   REMARKS
BOZEMAN        CLOUDY    42  41  96 CALM      29.76F
DILLON         RAIN      39  36  89 SW6       29.78F FOG
W YELLOWSTONE  MIX PCPN  34  32  93 SW5       29.83F
ENNIS          CLOUDY    41  37  87 S6        29.81F FOG
THREE FORKS      N/A     44  12  27 CALM      29.78F
TWIN BRIDGES     N/A     42  37  82 SE3       29.80F
$$

MTZ009-010-012-014-046-048-049-054-301100-
EAST SLOPES AND CENTRAL MONTANA

CITY           SKY/WX    TMP DP  RH WIND       PRES   REMARKS
CUT BANK       MOCLDY    41  32  70 SW6       29.69F
GREAT FALLS    CLOUDY    43  32  65 S9        29.71F
MALMSTROM AFB  CLOUDY    43  34  71 SW16      29.72F
HELENA         CLOUDY    45  36  70 SW7       29.75F
AUGUSTA        MOCLDY    41  30  66 W7        29.71F
BOWMANS CRNR   MOCLDY    39  33  78 S6        29.72S
CHOTEAU          N/A     39  30  70 SW6       29.72S
CONRAD           N/A     29  28  96 CALM      29.74F
FAIRFIELD        N/A     42  31  63 SW13      29.70F
POWER            N/A     38  32  80 SW12      29.70F WCI  31
RAYNESFORD     MOCLDY    45  33  61 SW7       29.73F
$$

MTZ011-013-016-021-045-047-050-051-301100-
NORTH CENTRAL MONTANA

CITY           SKY/WX    TMP DP  RH WIND       PRES   REMARKS
HAVRE          CLEAR     36  33  89 W7        29.69S WCI  30
LEWISTOWN      PTCLDY    40  32  73 NW3       29.73F
N BAR RANCH    CLOUDY    41  32  70 W7        29.75F
CHINOOK          N/A     36  32  87 CALM      29.69S
DENTON         MOCLDY    44  33  65 W8        29.69S
GEYSER         MOCLDY    43  33  66 W8        29.72S
GRASS RANGE    MOCLDY    44  34  67 W10       29.69F
JUDITH GAP     MOCLDY    42  33  70 W8        29.73F
STANFORD       MOCLDY    44  32  64 W6        29.72F
WINIFRED       CLOUDY    47  34  61 W6        29.71F
$$

MTZ017>020-022>027-061-062-301100-
NORTHEAST MONTANA

CITY           SKY/WX    TMP DP  RH WIND       PRES   REMARKS
GLASGOW        CLOUDY    41  32  70 SE10      29.68F
JORDAN           N/A     45  32  60 CALM      29.69F
SIDNEY         CLOUDY    42  35  76 N3        29.74F
WOLF POINT     CLOUDY    43  35  73 NE6       29.70F
MALTA          PTCLDY    37  32  81 W6        29.68F
PLENTYWOOD       N/A     45  32  61 E5        29.73F
POPLAR           N/A     46  34  61 CALM      29.71F
SCOBEY           N/A     45  28  51 W5        29.70
$$

MTZ028>42-056>058-301100-
SOUTHCENTRAL AND SOUTHEAST MONTANA

CITY           SKY/WX    TMP DP  RH WIND       PRES   REMARKS
BAKER          CLOUDY    45  37  73 S5        29.76F
BILLINGS       CLOUDY    49  37  63 SW9       29.73F
LIVINGSTON     CLOUDY    47  33  58 NW13      29.75F
MILES CITY     CLOUDY    46  34  62 S9        29.71F
BIG TIMBER     PTCLDY    43  37  81 W10       29.77F
FORSYTH          N/A     48  34  57 CALM      29.70F
HARLOWTON      CLOUDY    43  36  78 SW3       29.74F
LAUREL           N/A     48  29  48 CALM      29.75F
$$

REGIONAL REPORTS...DAKOTAS

CITY           SKY/WX    TMP DP  RH WIND       PRES   REMARKS
WILLISTON      CLOUDY    42  37  82 CALM      29.75F
MINOT          CLOUDY    46  38  73 S14G22    29.77F
DICKINSON      CLOUDY    40  36  86 S14       29.76F
BEACH          CLOUDY    45  41  87 S9        29.77F
TIOGA          CLOUDY    39  37  93 SE5       29.77F
WATFORD CITY   MOCLDY    39  36  87 VRB5      29.76F
BISMARCK       CLOUDY    42  34  73 S12       29.87F
GRAND FORKS    PTCLDY    37  35  92 S8        29.96S WCI  31
FARGO          CLEAR     36  34  92 SE7       29.98F WCI  30
BUFFALO SD       N/A     42  39  89 S10       29.72F
RAPID CITY     PTCLDY    34  33  96 SE6       29.81F WCI  29
$$

REGIONAL REPORTS...WYOMING/IDAHO/WASHINGTON

CITY           SKY/WX    TMP DP  RH WIND       PRES   REMARKS
GILLETTE       CLOUDY    40  35  83 S15       29.77F
SHERIDAN       CLOUDY    40  35  83 NW5       29.76F
BUFFALO WY     CLOUDY    46  30  53 CALM      29.78F
CODY           CLOUDY    46  32  58 SE8       29.77F
YELLOWSTONE LA   N/A     32  32 100 CALM      29.86F
IDAHO FALLS    LGT RAIN  43  41  93 S14       29.85F
SALMON         CLOUDY    41  37  87 SW6       29.83F
BOISE          CLOUDY    47  45  93 E6        29.83F
SPOKANE        PTCLDY    40  37  89 SW8       29.82S
$$

REGIONAL REPORTS...ALBERTA

CITY           SKY/WX    TMP DP  RH WIND       PRES   REMARKS
EDMONTON       CLOUDY    34  30  86 NE7       29.68F WCI  28
CALGARY        MOCLDY    32  25  74 S3        29.62F
LETHBRIDGE     CLEAR     32  27  80 NW5       29.66S
MEDICINE HAT   CLEAR     34  30  86 SW8       29.64S WCI  27
WATERTON GATE    N/A     37  34  87 SW8         N/A  WCI  31
CARDSTON         N/A     41  32  70 SW10        N/A
MILK RIVER       N/A     34  30  86 W6          N/A  WCI  29
ONEFOUR          N/A     34  30  86 NE2         N/A
$$

REGIONAL REPORTS...SASKATCHEWAN

CITY           SKY/WX    TMP DP  RH WIND       PRES   REMARKS
SWIFT CURRENT  CLOUDY    43  36  75 SE9       29.65F
REGINA         CLOUDY    41  34  75 SW3       29.72F
SASKATOON      FOG       34  34 100 E13       29.76F VSB 1/4 WCI  25
CYPRESS HILLS    N/A     37  28  70 W3          N/A
VAL MARIE        N/A     37  28  70 W2          N/A
ROCKGLEN         N/A     43  30  61 SE6         N/A
ASSINIBOIA       N/A     32  32 100 NE6         N/A  WCI  26
$$



USA.gov is the U.S. government's official web portal to all federal, state and local government web resources and services.